Regional Weather Roundup
Issued by NWS Sioux Falls, SD

Home | Current Version | Previous Version | Graphics & Text | Print | Product List | Glossary On
Versions: 1 2 3 4 5 6 7 8 9 10 11 12 13 14 15 16 17 18 19 20 21 22 23 24 25 26 27 28 29 30 31 32 33 34 35 36 37 38 39 40 41 42 43 44 45 46 47 48 49 50
000
ASUS43 KFSD 191902
RWRFSD

WEATHER ROUNDUP FOR SE SOUTH DAKOTA/SW MINNESOTA/NW IOWA
NATIONAL WEATHER SERVICE SIOUX FALLS SD
200 PM CDT WED JUL 19 2017

NOTE: "FAIR" INDICATES FEW OR NO CLOUDS BELOW 12,000 FEET WITH NO
SIGNIFICANT WEATHER AND OR OBSTRUCTIONS TO VISIBILITY.


SDZ038>040-050-052>070-192000-
SOUTHEAST SOUTH DAKOTA

CITY           SKY/WX    TMP DP  RH WIND       PRES   REMARKS
CHAMBERLAIN    SUNNY     95  74  51 E15       29.88F HX 106
HURON          CLOUDY    79  68  69 SE8       29.91F
MADISON        MOCLDY    68  68 100 CALM      29.99F
MITCHELL       CLOUDY    79  71  76 E20       29.93F
SIOUX FALLS    CLOUDY    78  71  79 N13       29.96R
WINNER         FAIR     101  69  35 SE16G22   29.87F HX 107
YANKTON        MOSUNNY   91  74  57 SE13      29.91F HX 100
$$

MNZ071-072-080-081-089-090-097-098-192000-
SOUTHWEST MINNESOTA

CITY           SKY/WX    TMP DP  RH WIND       PRES   REMARKS
FAIRMONT       PTSUNNY   86  75  69 SE20      29.95F HX  95
JACKSON        MOSUNNY   82  72  69 SE15      29.96F
LUVERNE        CLOUDY    81  70  69 N5        30.00R
MARSHALL       TSTM      70  68  93 N16       30.08R
MONTEVIDEO     CLOUDY    66  63  88 E12       30.04F
PIPESTONE      TSTM      70  64  83 E9G25     30.03R
REDWOOD FALLS  RAIN      74  65  73 N6        30.03R
TRACY          TSTM      79  75  89 N13       30.04R
WINDOM         CLOUDY    82  72  69 SE7       29.99R
WORTHINGTON    CLOUDY    82  73  74 S7        29.99R
$$

IAZ001>003-012>014-020>022-031-032-NEZ013-014-SDZ071-192000-
NORTHWEST IOWA

CITY           SKY/WX    TMP DP  RH WIND       PRES   REMARKS
CHEROKEE       SUNNY     90  73  57 S16G24    29.95F HX  98
DENISON        SUNNY     90  75  62 S13G18    30.00S HX 100
ESTHERVILLE    MOSUNNY   86  75  69 S20G25    29.95F HX  95
ORANGE CITY    MOSUNNY   88  73  62 S15G21    29.93F HX  96
SHELDON        PTSUNNY   88  73  62 S17G24    29.91F HX  96
SIOUX CITY     SUNNY     92  76  59 S17G23    29.93F HX 104
SPENCER        MOSUNNY   92  73  53 S16G26    29.94F HX 100
STORM LAKE     SUNNY     90  73  58 S18       29.98F HX  98
$$

ABBREVIATIONS USED IN REMARKS
   TC - TEMPERATURE IN CELSIUS
  WCI - WIND CHILL INDEX
   HX - HEAT INDEX
  VSB - VISIBILITY





USA.gov is the U.S. government's official web portal to all federal, state and local government web resources and services.